Date String (YYYY-MM-DD hh:mm:ss) UTC,Instrument flags,absolute air pressure of the measurement (hPa),sample flow rate (lpm),inlet stack bypass flow (lpm),air temperature of the measurement (°C),ambient temperature measured by the external sensor (°C),aerosol sample conditioner tube jacket temperature (°C),OPC LED temperature (°C),internal box temperature (°C),relative humidity of the measurement (%),span deviation,mass concentration of particles derived from Lorenz-Mie calculation of OPC scattering (μg/m³),mass concentration of particles derived from Lorenz-Mie calculation of OPC scattering (μg/m³),mass concentration of particles derived from Lorenz-Mie calculation of OPC scattering (μg/m³)
DateTimeUTC,F1_M11,P_M11,Q1_M11,Q2_M11,T1_M11,T2_M11,T3_M11,T4_M11,T5_M11,U1_M11,ZSPAN_M11,X2_M11,X0_M11,X1_M11
2023-10-02 06:00:00,SystemResetWarning,0828.4,5.00,000.00,028.4,027.2,000.0,036.7,030.1,15.1,0000.0,0004.42,0011.51,0003.65
2023-10-02 06:01:00,SystemResetWarning,0828.4,5.01,000.00,028.4,027.2,000.0,036.7,030.1,15.3,0000.0,0004.44,0011.33,0003.65
2023-10-02 06:02:00,SystemResetWarning,0828.4,5.00,000.00,028.4,027.2,000.0,036.7,030.1,15.3,0000.0,0004.45,0011.18,0003.67
2023-10-02 06:03:00,SystemResetWarning,0828.5,5.01,000.00,028.4,027.2,000.0,036.8,030.2,15.3,0000.0,0004.48,0011.75,0003.67
2023-10-02 06:04:00,SystemResetWarning,0828.5,5.00,000.00,028.4,027.2,000.0,036.8,030.2,15.4,0000.0,0004.50,0012.24,0003.68
2023-10-02 06:05:00,SystemResetWarning,0828.6,5.00,000.00,028.5,027.2,000.0,036.8,030.2,15.4,0000.0,0004.54,0012.39,0003.68
2023-10-02 06:06:00,SystemResetWarning,0828.6,4.99,000.00,028.5,027.2,000.0,036.8,030.2,15.5,0000.0,0004.57,0012.41,0003.69
2023-10-02 06:07:00,SystemResetWarning,0828.5,5.00,000.00,028.5,027.3,000.0,036.8,030.2,15.5,0000.0,0004.57,0013.37,0003.70
2023-10-02 06:08:00,SystemResetWarning,0828.5,5.01,000.00,028.5,027.3,000.0,036.8,030.2,15.8,0000.0,0004.57,0013.56,0003.71
2023-10-02 06:09:00,SystemResetWarning,0828.6,5.00,000.00,028.5,027.3,000.0,036.9,030.2,16.1,0000.0,0004.62,0013.62,0003.71
2023-10-02 06:10:00,SystemResetWarning,0828.5,5.00,000.00,028.5,027.3,000.0,036.9,030.3,16.2,0000.0,0004.60,0013.46,0003.71
2023-10-02 06:11:00,SystemResetWarning,0828.6,5.00,000.00,028.6,027.4,000.0,036.9,030.3,16.4,0000.0,0004.62,0013.41,0003.71
2023-10-02 06:12:00,SystemResetWarning,0828.6,4.99,000.00,028.6,026.6,000.0,036.9,030.3,16.6,0000.0,0004.62,0013.20,0003.72
2023-10-02 06:13:00,SystemResetWarning,0828.6,5.01,000.00,028.5,024.8,000.0,036.9,030.1,16.7,0000.0,0004.65,0013.26,0003.73
2023-10-02 06:14:00,SystemResetWarning,0828.6,5.00,000.00,028.4,024.2,000.0,036.8,030.0,16.8,0000.0,0004.63,0013.20,0003.72
2023-10-02 06:15:00,SystemResetWarning,0828.6,5.01,000.00,028.3,024.4,000.0,036.8,029.7,16.9,0000.0,0004.66,0013.18,0003.74
2023-10-02 06:16:00,SystemResetWarning,0828.6,5.00,000.00,028.2,024.7,000.0,036.8,029.7,17.1,0000.0,0004.66,0012.99,0003.75
2023-10-02 06:17:00,SystemResetWarning,0828.6,4.99,000.00,028.2,025.1,000.0,036.8,029.7,17.2,0000.0,0004.70,0013.88,0003.74
2023-10-02 06:18:00,SystemResetWarning,0828.6,5.00,000.00,028.2,025.5,000.0,036.8,029.7,17.3,0000.0,0004.73,0012.91,0003.73
2023-10-02 06:19:00,SystemResetWarning,0828.6,5.00,000.00,028.1,025.8,000.0,036.8,029.8,17.5,0000.0,0004.70,0012.61,0003.72
2023-10-02 06:20:00,SystemResetWarning,0828.6,5.00,000.00,028.1,026.0,000.0,036.8,029.8,17.5,0000.0,0004.64,0012.68,0003.71
2023-10-02 06:21:00,SystemResetWarning,0828.6,5.01,000.00,028.1,026.2,000.0,036.7,029.8,17.4,0000.0,0004.59,0011.59,0003.69
2023-10-02 06:22:00,SystemResetWarning,0828.6,5.01,000.00,028.1,026.4,000.0,036.7,029.9,17.3,0000.0,0004.56,0010.84,0003.69
2023-10-02 06:23:00,SystemResetWarning,0828.6,4.99,000.00,028.2,026.5,000.0,036.7,029.9,17.2,0000.0,0004.54,0011.26,0003.69
2023-10-02 06:24:00,SystemResetWarning,0828.6,4.99,000.00,028.2,026.7,000.0,036.7,029.9,17.1,0000.0,0004.49,0011.12,0003.67
2023-10-02 06:25:00,SystemResetWarning,0828.6,5.01,000.00,028.2,026.8,000.0,036.7,030.0,17.2,0000.0,0004.48,0011.13,0003.67
2023-10-02 06:26:00,SystemResetWarning,0828.6,5.01,000.00,028.2,026.8,000.0,036.7,030.0,17.1,0000.0,0004.46,0011.11,0003.65
2023-10-02 06:27:00,SystemResetWarning,0828.6,5.01,000.00,028.3,026.9,000.0,036.7,030.0,17.1,0000.0,0004.38,0011.29,0003.63
2023-10-02 06:28:00,SystemResetWarning,0828.6,5.00,000.00,028.3,027.0,000.0,036.7,030.0,17.1,0000.0,0004.36,0011.18,0003.63
2023-10-02 06:29:00,SystemResetWarning,0828.6,4.99,000.00,028.3,027.0,000.0,036.7,030.1,17.1,0000.0,0004.36,0011.54,0003.63
2023-10-02 06:30:00,SystemResetWarning,0828.7,4.99,000.00,028.3,027.1,000.0,036.7,030.1,17.2,0000.0,0004.36,0011.67,0003.62
2023-10-02 06:31:00,SystemResetWarning,0828.6,5.00,000.00,028.4,027.1,000.0,036.8,030.1,17.2,0000.0,0004.37,0011.62,0003.62
2023-10-02 06:32:00,SystemResetWarning,0828.7,5.00,000.00,028.4,027.2,000.0,036.8,030.1,17.2,0000.0,0004.42,0011.72,0003.64
2023-10-02 06:33:00,SystemResetWarning,0828.8,5.00,000.00,028.4,027.2,000.0,036.8,030.2,17.2,0000.0,0004.42,0011.70,0003.64
2023-10-02 06:34:00,SystemResetWarning,0828.8,5.00,000.00,028.4,027.2,000.0,036.8,030.2,17.1,0000.0,0004.40,0011.27,0003.64
2023-10-02 06:35:00,SystemResetWarning,0828.8,5.00,000.00,028.4,027.3,000.0,036.8,030.2,17.2,0000.0,0004.42,0011.11,0003.64
2023-10-02 06:36:00,SystemResetWarning,0828.8,5.00,000.00,028.5,027.3,000.0,036.8,030.2,17.2,0000.0,0004.42,0010.95,0003.63
2023-10-02 06:37:00,SystemResetWarning,0828.7,5.00,000.00,028.5,027.3,000.0,036.8,030.2,17.2,0000.0,0004.41,0011.05,0003.63
2023-10-02 06:38:00,SystemResetWarning,0828.7,5.00,000.00,028.5,027.4,000.0,036.9,030.3,17.2,0000.0,0004.44,0012.21,0003.64
2023-10-02 06:39:00,SystemResetWarning,0828.7,5.00,000.00,028.5,027.4,000.0,036.9,030.3,17.3,0000.0,0004.43,0011.80,0003.63
2023-10-02 06:40:00,SystemResetWarning,0828.7,5.00,000.00,028.6,027.4,000.0,036.9,030.3,17.3,0000.0,0004.41,0011.50,0003.63
2023-10-02 06:41:00,SystemResetWarning,0828.7,4.99,000.00,028.6,027.4,000.0,036.9,030.3,17.3,0000.0,0004.40,0011.03,0003.64
2023-10-02 06:42:00,SystemResetWarning,0828.7,5.00,000.00,028.6,027.4,000.0,036.9,030.3,17.3,0000.0,0004.36,0011.38,0003.64
2023-10-02 06:43:00,SystemResetWarning,0828.7,5.00,000.00,028.6,027.4,000.0,036.9,030.4,17.3,0000.0,0004.37,0011.65,0003.64
2023-10-02 06:44:00,SystemResetWarning,0828.7,5.00,000.00,028.6,027.4,000.0,036.9,030.3,17.3,0000.0,0004.38,0011.70,0003.63
2023-10-02 06:45:00,SystemResetWarning,0828.7,5.00,000.00,028.6,027.4,000.0,037.0,030.4,17.2,0000.0,0004.43,0011.97,0003.64
2023-10-02 06:46:00,SystemResetWarning,0828.7,4.97,000.00,028.6,025.8,000.0,036.9,030.3,17.1,0000.0,0004.44,0012.00,0003.63
2023-10-02 06:47:00,SystemResetWarning,0828.7,5.01,000.00,028.5,024.4,000.0,036.9,030.1,17.2,0000.0,0004.48,0011.95,0003.62
2023-10-02 06:48:00,SystemResetWarning,0828.7,5.01,000.00,028.5,024.2,000.0,036.8,029.9,17.3,0000.0,0004.51,0011.97,0003.61
2023-10-02 06:49:00,SystemResetWarning,0828.8,5.00,000.00,028.3,024.5,000.0,036.8,029.8,17.4,0000.0,0004.55,0010.42,0003.59
2023-10-02 06:50:00,SystemResetWarning,0828.8,5.00,000.00,028.2,024.9,000.0,036.8,029.7,17.5,0000.0,0004.57,0010.14,0003.58
2023-10-02 06:51:00,SystemResetWarning,0828.9,5.00,000.00,028.2,025.2,000.0,036.8,029.8,17.5,0000.0,0004.59,0010.39,0003.57
2023-10-02 06:52:00,SystemResetWarning,0829.0,5.00,000.00,028.2,025.6,000.0,036.8,029.8,17.5,0000.0,0004.68,0010.66,0003.55
2023-10-02 06:53:00,SystemResetWarning,0829.0,5.00,000.00,028.2,025.9,000.0,036.8,029.8,17.5,0000.0,0004.73,0010.27,0003.54
2023-10-02 06:54:00,SystemResetWarning,0829.0,4.99,000.00,028.2,026.1,000.0,036.8,029.9,17.5,0000.0,0004.74,0010.04,0003.52
2023-10-02 06:55:00,SystemResetWarning,0829.0,5.00,000.00,028.2,026.3,000.0,036.8,029.9,17.5,0000.0,0004.73,0010.39,0003.50
2023-10-02 06:56:00,SystemResetWarning,0829.0,5.00,000.00,028.2,026.5,000.0,036.8,029.9,17.5,0000.0,0004.65,0010.49,0003.47
2023-10-02 06:57:00,SystemResetWarning,0829.1,5.00,000.00,028.2,026.6,000.0,036.8,030.0,17.5,0000.0,0004.65,0011.03,0003.44
2023-10-02 06:58:00,SystemResetWarning,0829.1,5.00,000.00,028.2,026.8,000.0,036.8,030.0,17.5,0000.0,0004.64,0011.75,0003.42
2023-10-02 06:59:00,SystemResetWarning,0829.0,5.00,000.00,028.3,026.9,000.0,036.8,030.0,17.6,0000.0,0004.60,0011.82,0003.41
